Location: Newark
(46.7636°N, 1.8358°W)
Time: 10:16:53
(UTC+00:00)

Vanguard 2 Rocket - Pass Details

Date: 18 October 2019
Orbit: 554 x 3326 km, 32.9° (Epoch: 12 November)

Event Time Altitude Azimuth Distance (km) Brightness Sun altitude
Rises 09:58:26 0° 232° (SW) 6,784 11.4 28.2°
Reaches altitude 10° 10:02:57 10° 227° (SW) 5,993 11.3 28.6°
Maximum altitude 10:21:00 46° 162° (SSE) 4,026 12.0 30.1°
Drops below altitude 10° 10:37:29 10° 98° (E) 5,536 11.4 31.2°
Sets 10:41:26 0° 93° (E) 6,253 11.4 31.4°
